Southend-On-Sea, United Kingdom

8:59 AM BST on June 29, 2017 (GMT +0100)
Southend

Weather History for EGMC - October, 2012

Change the Weather History Date:

Friday, October 5, 2012

  Actual Average Record
Temperature  
Mean Temperature 53 °F -  
Max Temperature 60 °F 56 °F 69 °F (2011)
Min Temperature 46 °F 45 °F 39 °F (2003)
Degree Days  
Heating Degree Days 12    
Growing Degree Days 3 (Base 50)    
Moisture  
Dew Point 49 °F    
Average Humidity 79    
Maximum Humidity 93    
Minimum Humidity 55    
Precipitation  
Precipitation 0.00 in - - ()
Sea Level Pressure  
Sea Level Pressure 29.73 in    
Wind  
Wind Speed 12 mph ()    
Max Wind Speed 28 mph    
Max Gust Speed 40 mph    
Visibility 5.6 miles    
Events Rain    
Averages and records for this station are not official NWS values.
T = Trace of Precipitation, MM = Missing Value Source: Averaged Metar Reports

Daily Weather History Graph

Daily Weather History Graph

Search for Another Location

Airport or City:

Trip Planner

Search our weather history database for the weather conditions in past years. The results will help you decide how hot, cold, wet, or windy it might be!

Date:

Astronomy

Oct. 05, 2012 Rise Set
Actual Time 7:04 AM BST 6:25 PM BST
Civil Twilight 6:31 AM BST 6:58 PM BST
Nautical Twilight 5:52 AM BST 7:37 PM BST
Astronomical Twilight 5:13 AM BST 8:16 PM BST
Moon 9:02 PM BST (10/5) 12:34 PM BST (10/5)
Length of Visible Light 12h 26m
Length of Day
11h 20m
Waning Gibbous, 76% of the Moon is Illuminated
Oct 5
Waning Gibbous
Oct 8
Last Quarter
Oct 15
New
Oct 22
First Quarter
Oct 29
Full

Hourly Weather History & Observations

Time (BST) Temp. Windchill Dew Point Humidity Pressure Visibility Wind Dir Wind Speed Gust Speed Precip Events Conditions
12:50 AM 53.6 °F - 48.2 °F 82% 29.77 in 5.0 mi South 10.4 mph - N/A Rain Rain
1:50 AM 53.6 °F - 50.0 °F 88% 29.71 in 5.0 mi South 10.4 mph - N/A Rain Rain
2:50 AM 53.6 °F - 50.0 °F 88% 29.65 in 5.0 mi SE 8.1 mph - N/A Rain Rain
3:50 AM 53.6 °F - 50.0 °F 88% 29.56 in 5.0 mi SSE 11.5 mph - N/A Rain Rain
4:50 AM 59.0 °F - 55.4 °F 88% 29.50 in 6.2 mi SSW 23.0 mph - N/A Rain Light Rain
5:20 AM 59.0 °F - 55.4 °F 88% 29.50 in 6.2 mi SSW 23.0 mph - N/A Rain Light Rain
5:50 AM 60.8 °F - 57.2 °F 88% 29.50 in 6.2 mi SW 23.0 mph - N/A Rain Light Rain
6:20 AM 60.8 °F - 57.2 °F 88% 29.50 in 6.2 mi SW 25.3 mph - N/A Rain Light Rain
6:50 AM 60.8 °F - 57.2 °F 88% 29.50 in 3.7 mi SW 25.3 mph 38.0 mph N/A Rain Rain
7:20 AM 60.8 °F - 55.4 °F 82% 29.56 in 6.2 mi West 27.6 mph 40.3 mph N/A   Mostly Cloudy
7:50 AM 53.6 °F - 48.2 °F 82% 29.62 in 6.2 mi WNW 17.3 mph 32.2 mph N/A   Scattered Clouds
8:20 AM 53.6 °F - 48.2 °F 82% 29.62 in 6.2 mi West 6.9 mph - N/A   Partly Cloudy
8:50 AM 53.6 °F - 48.2 °F 82% 29.65 in 6.2 mi WSW 9.2 mph - N/A   Partly Cloudy
9:20 AM 55.4 °F - 50.0 °F 82% 29.68 in 6.2 mi WSW 9.2 mph - N/A   Partly Cloudy
9:50 AM 57.2 °F - 50.0 °F 77% 29.71 in 6.2 mi WSW 11.5 mph - N/A   Partly Cloudy
10:20 AM 57.2 °F - 50.0 °F 77% 29.71 in 6.2 mi West 16.1 mph - N/A   Scattered Clouds
10:50 AM 57.2 °F - 50.0 °F 77% 29.71 in 6.2 mi West 18.4 mph - N/A   Scattered Clouds
11:20 AM 59.0 °F - 50.0 °F 72% 29.74 in 6.2 mi West 16.1 mph - N/A   Partly Cloudy
11:50 AM 59.0 °F - 46.4 °F 63% 29.74 in 6.2 mi West 16.1 mph - N/A   Partly Cloudy
12:20 PM 59.0 °F - 46.4 °F 63% 29.74 in 6.2 mi West 17.3 mph - N/A   Partly Cloudy
12:50 PM 60.8 °F - 46.4 °F 59% 29.77 in 6.2 mi West 16.1 mph - N/A   Partly Cloudy
1:20 PM 60.8 °F - 44.6 °F 55% 29.77 in 6.2 mi West 19.6 mph - N/A   Scattered Clouds
1:50 PM 60.8 °F - 46.4 °F 59% 29.77 in 6.2 mi West 13.8 mph - N/A   Scattered Clouds
2:20 PM 60.8 °F - 46.4 °F 59% 29.80 in 6.2 mi West 18.4 mph - N/A   Scattered Clouds
2:50 PM 60.8 °F - 46.4 °F 59% 29.80 in 6.2 mi West 15.0 mph - N/A   Partly Cloudy
3:20 PM 59.0 °F - 46.4 °F 63% 29.80 in 6.2 mi WSW 13.8 mph - N/A   Partly Cloudy
3:50 PM 59.0 °F - 46.4 °F 63% 29.80 in 6.2 mi West 11.5 mph - N/A   Partly Cloudy
4:20 PM 59.0 °F - 48.2 °F 67% 29.80 in 6.2 mi West 6.9 mph - N/A   Partly Cloudy
4:50 PM 57.2 °F - 46.4 °F 67% 29.83 in 6.2 mi West 8.1 mph - N/A Rain Light Rain Showers
5:20 PM 55.4 °F - 46.4 °F 72% 29.83 in 6.2 mi WNW 6.9 mph - N/A Rain Light Rain Showers
5:50 PM 55.4 °F - 48.2 °F 77% 29.83 in 6.2 mi WNW 6.9 mph - N/A Rain Light Rain
6:20 PM 53.6 °F - 48.2 °F 82% 29.83 in 6.2 mi West 5.8 mph - N/A Rain Light Rain
6:50 PM 51.8 °F - 48.2 °F 88% 29.83 in 4.3 mi WNW 4.6 mph - N/A Rain Rain
7:20 PM 51.8 °F - 48.2 °F 88% 29.83 in 5.0 mi WNW 5.8 mph - N/A Rain Rain
7:50 PM 50.0 °F - 46.4 °F 87% 29.86 in 5.6 mi NW 5.8 mph - N/A Rain Rain
8:20 PM 50.0 °F - 46.4 °F 87% 29.83 in 5.6 mi NNW 4.6 mph - N/A Rain Rain
8:50 PM 48.2 °F - 46.4 °F 93% 29.83 in 6.2 mi Variable 2.3 mph - N/A Rain Light Rain
9:20 PM 50.0 °F - 46.4 °F 87% 29.83 in 5.6 mi Calm Calm - N/A Rain Light Rain
9:50 PM 50.0 °F - 46.4 °F 87% 29.83 in 4.3 mi Variable 2.3 mph - N/A Rain Rain
10:20 PM 48.2 °F - 44.6 °F 87% 29.83 in 3.7 mi North 3.5 mph - N/A Rain Light Rain
10:50 PM 48.2 °F - 44.6 °F 87% 29.83 in 2.5 mi NE 2.3 mph - N/A   Light Drizzle
11:20 PM 46.4 °F 45.2 °F 44.6 °F 93% 29.80 in 5.0 mi East 3.5 mph - N/A   Light Drizzle
11:50 PM 46.4 °F - 44.6 °F 93% 29.80 in 2.5 mi NE 2.3 mph - N/A   Light Drizzle